{"data":{"norad_id":59016,"epoch":"2026-09-20T06:47:47.749056Z","epoch_age_seconds":175041,"freshness":"STALE","line1":"1 59016U 24036U   26263.28319154 -.00004464  00000+0 -13205-3 0  9991","line2":"2 59016  53.1605 227.4193 0001199 104.4419 255.6715 15.31724659145491","mean_motion":15.31724659,"eccentricity":0.0001199,"inclination_deg":53.1605,"raan_deg":227.4193,"arg_perigee_deg":104.4419,"mean_anomaly_deg":255.6715,"bstar":-0.00013205,"rev_number":14549,"period_min":94.011674457217,"perigee_km":469.84531747762,"apogee_km":471.48766055428,"semimajor_km":6848.803489016,"source":"CELESTRAK","updated_at":"2026-09-21T09:00:34.026923Z"}}